timestamp,wind_dir_avg,wind_spd_avg,wind_spd_max_dir,wind_spd_gust,battery_voltage,lat,long
2023-08-10 00:04:00+00:00,149.0,9.19,142.0,10.76,12.49,47.59359,-54.27349
2023-08-10 00:14:01+00:00,137.0,8.14,135.0,9.75,12.41,47.59359,-54.27349
2023-08-10 00:24:01+00:00,154.0,6.26,158.0,7.07,12.41,47.59359,-54.27349
2023-08-10 00:34:01+00:00,144.0,5.64,146.0,6.97,12.41,47.59359,-54.27349
2023-08-10 00:44:01+00:00,142.0,9.79,144.0,11.36,12.41,47.59359,-54.27349
2023-08-10 00:54:01+00:00,137.0,8.37,131.0,9.86,12.41,47.59359,-54.27349
2023-08-10 01:04:01+00:00,145.0,11.38,146.0,12.63,12.41,47.59359,-54.27349
2023-08-10 01:14:01+00:00,140.0,8.37,144.0,11.11,12.41,47.59359,-54.27349
2023-08-10 01:24:01+00:00,133.0,9.49,140.0,10.77,12.41,47.59359,-54.27349
2023-08-10 01:34:01+00:00,133.0,7.65,137.0,8.76,12.41,47.59359,-54.27349
2023-08-10 01:44:01+00:00,134.0,7.92,131.0,9.9,12.41,47.59359,-54.27349
2023-08-10 01:54:01+00:00,131.0,8.07,135.0,9.35,12.41,47.59359,-54.27349
2023-08-10 02:04:01+00:00,130.0,7.93,135.0,9.43,12.41,47.59359,-54.27349
2023-08-10 02:14:01+00:00,142.0,8.49,143.0,9.69,12.41,47.59359,-54.27349
2023-08-10 02:24:01+00:00,132.0,7.4,130.0,9.1,12.41,47.59359,-54.27349
2023-08-10 02:34:01+00:00,135.0,6.92,136.0,7.94,12.41,47.59359,-54.27349
2023-08-10 02:44:01+00:00,132.0,6.3,125.0,8.62,12.41,47.59359,-54.27349
2023-08-10 02:54:01+00:00,151.0,7.31,147.0,8.97,12.41,47.59359,-54.27349
2023-08-10 03:04:01+00:00,142.0,7.56,140.0,9.79,12.41,47.59359,-54.27349
2023-08-10 03:14:01+00:00,128.0,9.19,139.0,11.08,12.41,47.59359,-54.27349
2023-08-10 03:24:01+00:00,135.0,8.75,134.0,10.65,12.41,47.59359,-54.27349
2023-08-10 03:34:01+00:00,136.0,7.37,141.0,9.14,12.41,47.59359,-54.27349
2023-08-10 03:44:01+00:00,138.0,6.69,137.0,7.82,12.41,47.59359,-54.27349
2023-08-10 03:54:01+00:00,139.0,7.03,145.0,7.99,12.41,47.59359,-54.27349
2023-08-10 04:04:01+00:00,140.0,9.62,140.0,11.21,12.41,47.59359,-54.27349
2023-08-10 04:14:00+00:00,142.0,7.71,146.0,8.93,12.41,47.59359,-54.27349
2023-08-10 04:24:00+00:00,127.0,8.07,132.0,9.47,12.41,47.59359,-54.27349
2023-08-10 04:34:00+00:00,122.0,7.66,131.0,10.1,12.41,47.59359,-54.27349
2023-08-10 04:44:00+00:00,121.0,7.37,125.0,9.08,12.41,47.59359,-54.27349
2023-08-10 04:54:00+00:00,113.0,7.31,134.0,10.64,12.41,47.59359,-54.27349
2023-08-10 05:04:00+00:00,122.0,8.18,131.0,10.17,12.41,47.59359,-54.27349
2023-08-10 05:14:00+00:00,109.0,5.32,131.0,10.03,12.33,47.59359,-54.27349
2023-08-10 05:24:00+00:00,121.0,8.17,127.0,9.86,12.33,47.59359,-54.27349
2023-08-10 05:34:00+00:00,114.0,4.86,142.0,9.07,12.33,47.59359,-54.27349
2023-08-10 05:44:00+00:00,121.0,7.22,126.0,9.96,12.33,47.59359,-54.27349
2023-08-10 05:54:00+00:00,106.0,4.49,134.0,8.06,12.33,47.59359,-54.27349
2023-08-10 06:04:00+00:00,122.0,7.82,119.0,10.35,12.33,47.59359,-54.27349
2023-08-10 06:14:00+00:00,124.0,8.27,127.0,10.07,12.33,47.59359,-54.27349
2023-08-10 06:24:00+00:00,122.0,8.39,125.0,10.05,12.33,47.59359,-54.27349
2023-08-10 06:34:00+00:00,114.0,5.21,126.0,8.36,12.33,47.59359,-54.27349
2023-08-10 06:44:00+00:00,114.0,5.32,130.0,9.12,12.33,47.59359,-54.27349
2023-08-10 06:54:00+00:00,102.0,4.41,95.0,8.81,12.33,47.59359,-54.27349
2023-08-10 07:04:00+00:00,89.0,5.09,76.0,7.02,12.33,47.59359,-54.27349
2023-08-10 07:14:01+00:00,97.0,6.42,91.0,9.59,12.25,47.59359,-54.27349
2023-08-10 07:24:01+00:00,112.0,5.43,127.0,8.7,12.25,47.59359,-54.27349
2023-08-10 07:34:01+00:00,102.0,5.94,123.0,8.58,12.25,47.59359,-54.27349
2023-08-10 07:44:01+00:00,83.0,6.01,77.0,7.9,12.25,47.59359,-54.27349
2023-08-10 07:54:01+00:00,100.0,4.65,93.0,7.71,12.25,47.59359,-54.27349
2023-08-10 08:04:01+00:00,99.0,5.84,89.0,8.25,12.25,47.59359,-54.27349
2023-08-10 08:14:00+00:00,80.0,5.23,82.0,6.91,12.25,47.59359,-54.27349
2023-08-10 08:24:00+00:00,87.0,4.06,81.0,6.69,12.25,47.59359,-54.27349
2023-08-10 08:34:00+00:00,97.0,5.79,109.0,8.66,12.25,47.59359,-54.27349
2023-08-10 08:44:00+00:00,95.0,4.5,102.0,7.63,12.25,47.59359,-54.27349
2023-08-10 08:54:00+00:00,82.0,3.98,84.0,5.74,12.25,47.59359,-54.27349
2023-08-10 09:04:00+00:00,83.0,5.07,100.0,7.37,12.25,47.59359,-54.27349
2023-08-10 09:14:00+00:00,74.0,6.89,76.0,10.81,12.17,47.59359,-54.27349
2023-08-10 09:24:00+00:00,76.0,6.87,73.0,10.55,12.17,47.59359,-54.27349
2023-08-10 09:34:00+00:00,54.0,4.15,48.0,4.84,12.17,47.59359,-54.27349
2023-08-10 09:44:00+00:00,59.0,5.4,75.0,9.56,12.17,47.59359,-54.27349
2023-08-10 09:54:00+00:00,65.0,5.47,73.0,9.3,12.17,47.59359,-54.27349
2023-08-10 10:04:00+00:00,71.0,6.76,69.0,7.55,12.17,47.59359,-54.27349
2023-08-10 10:14:00+00:00,86.0,3.87,84.0,5.49,12.17,47.59359,-54.27349
2023-08-10 10:24:00+00:00,82.0,3.96,63.0,7.42,12.17,47.59359,-54.27349
2023-08-10 10:34:00+00:00,82.0,4.21,71.0,6.42,12.17,47.59359,-54.27349
2023-08-10 10:44:00+00:00,93.0,4.02,98.0,6.6,12.17,47.59359,-54.27349
2023-08-10 10:54:00+00:00,87.0,3.81,101.0,5.93,12.17,47.59359,-54.27349
2023-08-10 11:04:00+00:00,95.0,3.38,101.0,5.97,12.17,47.59359,-54.27349
2023-08-10 11:14:01+00:00,77.0,4.62,78.0,7.24,12.33,47.59359,-54.27349
2023-08-10 11:24:01+00:00,80.0,4.11,96.0,5.56,12.33,47.59359,-54.27349
2023-08-10 11:34:01+00:00,83.0,3.36,103.0,5.35,12.33,47.59359,-54.27349
2023-08-10 11:44:01+00:00,102.0,2.9,107.0,5.51,12.33,47.59359,-54.27349
2023-08-10 11:54:01+00:00,103.0,3.1,118.0,6.11,12.33,47.59359,-54.27349
2023-08-10 12:04:01+00:00,89.0,3.94,87.0,5.62,12.33,47.59359,-54.27349
2023-08-10 12:14:00+00:00,90.0,2.52,101.0,4.72,12.41,47.59359,-54.27349
2023-08-10 12:24:00+00:00,78.0,3.16,97.0,6.33,12.41,47.59359,-54.27349
2023-08-10 12:34:00+00:00,99.0,3.31,126.0,7.55,12.41,47.59359,-54.27349
2023-08-10 12:44:00+00:00,88.0,2.8,122.0,4.19,12.41,47.59359,-54.27349
2023-08-10 12:54:00+00:00,104.0,3.37,121.0,6.58,12.41,47.59359,-54.27349
2023-08-10 13:04:00+00:00,94.0,3.2,81.0,4.74,12.41,47.59359,-54.27349
2023-08-10 13:14:01+00:00,76.0,1.7,87.0,2.74,12.97,47.59359,-54.27349
2023-08-10 13:24:01+00:00,71.0,1.51,57.0,2.39,12.97,47.59359,-54.27349
2023-08-10 13:34:01+00:00,74.0,2.7,75.0,4.35,12.97,47.59359,-54.27349
2023-08-10 13:44:01+00:00,71.0,2.98,60.0,3.82,12.97,47.59359,-54.27349
2023-08-10 13:54:01+00:00,93.0,2.36,98.0,3.43,12.97,47.59359,-54.27349
2023-08-10 14:04:01+00:00,62.0,1.97,69.0,2.59,12.97,47.59359,-54.27349
2023-08-10 14:14:01+00:00,59.0,1.86,52.0,2.75,12.97,47.59359,-54.27349
2023-08-10 14:24:01+00:00,92.0,2.73,102.0,4.22,12.97,47.59359,-54.27349
2023-08-10 14:34:01+00:00,91.0,1.48,124.0,3.14,12.97,47.59359,-54.27349
2023-08-10 14:44:01+00:00,113.0,0.73,125.0,1.28,12.97,47.59359,-54.27349
2023-08-10 14:54:01+00:00,98.0,1.76,119.0,2.95,12.97,47.59359,-54.27349
2023-08-10 15:04:01+00:00,150.0,3.6,146.0,4.4,12.97,47.59359,-54.27349
2023-08-10 15:14:00+00:00,135.0,1.13,154.0,2.58,13.21,47.59359,-54.27349
2023-08-10 15:24:00+00:00,126.0,2.06,122.0,2.81,13.21,47.59359,-54.27349
2023-08-10 15:34:00+00:00,138.0,0.84,151.0,1.68,13.21,47.59359,-54.27349
2023-08-10 15:44:00+00:00,166.0,3.23,161.0,4.05,13.21,47.59359,-54.27349
2023-08-10 15:54:00+00:00,167.0,4.99,162.0,5.95,13.21,47.59359,-54.27349
2023-08-10 16:04:00+00:00,166.0,5.46,170.0,6.28,13.21,47.59359,-54.27349
2023-08-10 16:14:01+00:00,176.0,5.9,177.0,7.2,13.53,47.59359,-54.27349
2023-08-10 16:24:01+00:00,176.0,6.18,170.0,6.97,13.53,47.59359,-54.27349
2023-08-10 16:34:01+00:00,172.0,5.41,178.0,6.3,13.53,47.59359,-54.27349
2023-08-10 16:44:01+00:00,178.0,4.42,178.0,4.63,13.53,47.59359,-54.27349
2023-08-10 16:54:01+00:00,195.0,4.62,195.0,5.01,13.53,47.59359,-54.27349
2023-08-10 17:04:01+00:00,203.0,3.96,213.0,4.91,13.53,47.59359,-54.27349
2023-08-10 17:14:00+00:00,214.0,6.45,213.0,7.97,13.37,47.59359,-54.27349
2023-08-10 17:24:00+00:00,217.0,7.56,218.0,9.21,13.37,47.59359,-54.27349
2023-08-10 17:34:00+00:00,223.0,7.18,229.0,8.29,13.37,47.59359,-54.27349
2023-08-10 17:44:00+00:00,217.0,6.53,220.0,8.1,13.37,47.59359,-54.27349
2023-08-10 17:54:00+00:00,218.0,6.71,225.0,7.77,13.37,47.59359,-54.27349
2023-08-10 18:04:00+00:00,218.0,6.77,212.0,7.91,13.37,47.59359,-54.27349
2023-08-10 18:14:00+00:00,217.0,7.57,221.0,9.35,13.29,47.59359,-54.27349
2023-08-10 18:24:00+00:00,218.0,7.21,220.0,8.63,13.29,47.59359,-54.27349
2023-08-10 18:34:00+00:00,223.0,6.46,224.0,7.13,13.29,47.59359,-54.27349
2023-08-10 18:44:00+00:00,223.0,6.67,227.0,7.51,13.29,47.59359,-54.27349
2023-08-10 18:54:00+00:00,218.0,7.76,222.0,8.8,13.29,47.59359,-54.27349
2023-08-10 19:04:00+00:00,212.0,7.33,211.0,8.87,13.29,47.59359,-54.27349
2023-08-10 19:14:00+00:00,214.0,6.87,214.0,7.91,13.44,47.59359,-54.27349
2023-08-10 19:24:00+00:00,217.0,8.2,220.0,9.28,13.44,47.59359,-54.27349
2023-08-10 19:34:00+00:00,218.0,7.9,225.0,9.01,13.44,47.59359,-54.27349
2023-08-10 19:44:00+00:00,212.0,7.44,208.0,8.33,13.44,47.59359,-54.27349
2023-08-10 19:54:00+00:00,210.0,8.15,212.0,8.88,13.44,47.59359,-54.27349
2023-08-10 20:04:00+00:00,218.0,7.66,221.0,8.72,13.44,47.59359,-54.27349
2023-08-10 20:14:00+00:00,220.0,7.83,221.0,8.52,13.44,47.59359,-54.27349
2023-08-10 20:24:00+00:00,217.0,7.54,218.0,9.92,13.44,47.59359,-54.27349
2023-08-10 20:34:00+00:00,226.0,7.49,230.0,8.28,13.44,47.59359,-54.27349
2023-08-10 20:44:00+00:00,219.0,7.92,224.0,8.7,13.44,47.59359,-54.27349
2023-08-10 20:54:00+00:00,218.0,7.22,219.0,8.77,13.44,47.59359,-54.27349
2023-08-10 21:04:00+00:00,217.0,7.52,217.0,8.79,13.44,47.59359,-54.27349
2023-08-10 21:14:01+00:00,215.0,8.03,216.0,8.96,13.29,47.59359,-54.27349
2023-08-10 21:24:01+00:00,216.0,7.44,213.0,8.18,13.29,47.59359,-54.27349
2023-08-10 21:34:01+00:00,216.0,7.42,212.0,8.24,13.29,47.59359,-54.27349
2023-08-10 21:44:01+00:00,216.0,6.92,224.0,8.03,13.29,47.59359,-54.27349
2023-08-10 21:54:01+00:00,217.0,6.81,217.0,7.61,13.29,47.59359,-54.27349
2023-08-10 22:04:01+00:00,212.0,6.67,214.0,7.56,13.29,47.59359,-54.27349
